| time (UTC) | temp F | wind direction | speed MPH | gust MPH | rain 1hr in | rain 24hr in | rain mn in | humidity % | barometer mb |
| 20260505121504 | 63 | 14 | 3.0 | 17.0 | 0.00 | 0.00 | 0.00 | 71 | 1016.1 |
| 20260505115504 | 62 | 14 | 4.0 | 10.0 | 0.00 | 0.00 | 0.00 | 72 | 1016.0 |
| 20260505115004 | 62 | 14 | 4.0 | 10.0 | 0.00 | 0.00 | 0.00 | 73 | 1015.9 |
| 20260505114504 | 62 | 14 | 4.0 | 9.0 | 0.00 | 0.00 | 0.00 | 73 | 1015.9 |
| 20260505114004 | 62 | 14 | 4.0 | 11.0 | 0.00 | 0.00 | 0.00 | 74 | 1015.9 |
| 20260505113004 | 61 | 14 | 5.0 | 12.0 | 0.00 | 0.00 | 0.00 | 74 | 1015.8 |
| 20260505112503 | 61 | 14 | 5.0 | 12.0 | 0.00 | 0.00 | 0.00 | 75 | 1015.9 |
| 20260505112004 | 61 | 15 | 4.0 | 10.0 | 0.00 | 0.00 | 0.00 | 75 | 1015.9 |
| 20260505111504 | 61 | 15 | 4.0 | 11.0 | 0.00 | 0.00 | 0.00 | 75 | 1015.8 |
| 20260505111003 | 61 | 14 | 4.0 | 13.0 | 0.00 | 0.00 | 0.00 | 75 | 1015.8 |
| 20260505102004 | 60 | 14 | 3.0 | 8.0 | 0.00 | 0.00 | 0.00 | 75 | 1015.2 |
| 20260505101505 | 60 | 14 | 3.0 | 9.0 | 0.00 | 0.00 | 0.00 | 74 | 1015.1 |
| 20260505101004 | 60 | 14 | 3.0 | 9.0 | 0.00 | 0.00 | 0.00 | 74 | 1015.1 |
| 20260505100504 | 60 | 14 | 3.0 | 10.0 | 0.00 | 0.00 | 0.00 | 74 | 1015.0 |
| 20260505100004 | 61 | 14 | 4.0 | 10.0 | 0.00 | 0.00 | 0.00 | 74 | 1015.0 |
| 20260505095504 | 61 | 14 | 3.0 | 9.0 | 0.00 | 0.00 | 0.00 | 74 | 1014.9 |
| 20260505095004 | 61 | 14 | 3.0 | 9.0 | 0.00 | 0.00 | 0.00 | 73 | 1014.9 |
| 20260505094505 | 61 | 14 | 3.0 | 7.0 | 0.00 | 0.00 | 0.00 | 73 | 1014.8 |
| 20260505094004 | 61 | 14 | 4.0 | 9.0 | 0.00 | 0.00 | 0.00 | 72 | 1014.8 |
| 20260505093504 | 61 | 14 | 4.0 | 9.0 | 0.00 | 0.00 | 0.00 | 72 | 1014.7 |
| 20260505093004 | 61 | 14 | 3.0 | 9.0 | 0.00 | 0.00 | 0.00 | 72 | 1014.7 |
| 20260505092503 | 62 | 14 | 3.0 | 9.0 | 0.00 | 0.00 | 0.00 | 72 | 1014.6 |
| 20260505092004 | 62 | 14 | 3.0 | 8.0 | 0.00 | 0.00 | 0.00 | 71 | 1014.7 |
| 20260505091004 | 62 | 14 | 3.0 | 9.0 | 0.00 | 0.00 | 0.00 | 71 | 1014.6 |
| 20260505090504 | 62 | 14 | 3.0 | 8.0 | 0.00 | 0.00 | 0.00 | 70 | 1014.6 |
| 20260505090005 | 62 | 14 | 4.0 | 9.0 | 0.00 | 0.00 | 0.00 | 70 | 1014.6 |
| 20260505085504 | 62 | 14 | 4.0 | 13.0 | 0.00 | 0.00 | 0.00 | 70 | 1014.6 |
| 20260505085004 | 63 | 14 | 4.0 | 13.0 | 0.00 | 0.00 | 0.00 | 70 | 1014.6 |
| 20260505084504 | 63 | 14 | 4.0 | 10.0 | 0.00 | 0.00 | 0.00 | 69 | 1014.6 |
| 20260505084003 | 63 | 14 | 3.0 | 9.0 | 0.00 | 0.00 | 0.00 | 69 | 1014.6 |
| 20260505083504 | 63 | 14 | 4.0 | 10.0 | 0.00 | 0.00 | 0.00 | 69 | 1014.5 |
| 20260505083005 | 63 | 14 | 4.0 | 10.0 | 0.00 | 0.00 | 0.00 | 69 | 1014.6 |
| 20260505082504 | 63 | 14 | 4.0 | 13.0 | 0.00 | 0.00 | 0.00 | 68 | 1014.4 |
| 20260505082004 | 63 | 14 | 4.0 | 13.0 | 0.00 | 0.00 | 0.00 | 68 | 1014.4 |
| 20260505081504 | 63 | 14 | 5.0 | 12.0 | 0.00 | 0.00 | 0.00 | 68 | 1014.5 |
| 20260505081004 | 63 | 14 | 5.0 | 12.0 | 0.00 | 0.00 | 0.00 | 68 | 1014.5 |
| 20260505080504 | 64 | 14 | 4.0 | 13.0 | 0.00 | 0.00 | 0.00 | 68 | 1014.5 |
| 20260505080004 | 64 | 14 | 4.0 | 13.0 | 0.00 | 0.00 | 0.00 | 68 | 1014.4 |
| 20260505075504 | 64 | 14 | 4.0 | 13.0 | 0.00 | 0.00 | 0.00 | 68 | 1014.4 |
| 20260505075003 | 64 | 14 | 4.0 | 13.0 | 0.00 | 0.00 | 0.00 | 67 | 1014.4 |
| 20260505074504 | 64 | 14 | 4.0 | 12.0 | 0.00 | 0.00 | 0.00 | 67 | 1014.4 |
| 20260505074004 | 64 | 14 | 3.0 | 11.0 | 0.00 | 0.00 | 0.00 | 67 | 1014.3 |
| 20260505073504 | 64 | 14 | 4.0 | 11.0 | 0.00 | 0.00 | 0.00 | 67 | 1014.3 |
| 20260505072504 | 64 | 14 | 4.0 | 10.0 | 0.00 | 0.00 | 0.00 | 67 | 1014.2 |
| 20260505071504 | 64 | 14 | 4.0 | 10.0 | 0.00 | 0.00 | 0.00 | 67 | 1014.2 |
| 20260505071004 | 64 | 14 | 3.0 | 10.0 | 0.00 | 0.00 | 0.00 | 67 | 1014.2 |
| 20260505070504 | 64 | 14 | 3.0 | 10.0 | 0.00 | 0.00 | 0.00 | 66 | 1014.1 |
| 20260505070004 | 64 | 14 | 4.0 | 14.0 | 0.00 | 0.00 | 0.00 | 66 | 1014.0 |
| 20260505065503 | 64 | 14 | 4.0 | 14.0 | 0.00 | 0.00 | 0.00 | 66 | 1014.1 |
| 20260505065004 | 64 | 14 | 4.0 | 14.0 | 0.00 | 0.00 | 0.00 | 65 | 1014.1 |
| 20260505064504 | 64 | 14 | 4.0 | 11.0 | 0.00 | 0.00 | 0.00 | 65 | 1014.1 |
| 20260505064004 | 64 | 14 | 4.0 | 11.0 | 0.00 | 0.00 | 0.00 | 65 | 1014.2 |
| 20260505063004 | 65 | 14 | 4.0 | 10.0 | 0.00 | 0.00 | 0.00 | 65 | 1014.2 |
| 20260505062503 | 65 | 14 | 4.0 | 10.0 | 0.00 | 0.00 | 0.00 | 64 | 1014.2 |
| 20260505062004 | 65 | 14 | 4.0 | 11.0 | 0.00 | 0.00 | 0.00 | 64 | 1014.2 |
| 20260505061505 | 65 | 14 | 4.0 | 11.0 | 0.00 | 0.00 | 0.00 | 64 | 1014.2 |
| 20260505061003 | 65 | 14 | 4.0 | 11.0 | 0.00 | 0.00 | 0.00 | 64 | 1014.2 |
| 20260505060504 | 65 | 14 | 4.0 | 11.0 | 0.00 | 0.00 | 0.00 | 64 | 1014.2 |
| 20260505060004 | 65 | 14 | 4.0 | 9.0 | 0.00 | 0.00 | 0.00 | 64 | 1014.2 |
| 20260505055504 | 65 | 14 | 4.0 | 9.0 | 0.00 | 0.00 | 0.00 | 64 | 1014.2 |
| 20260505055004 | 65 | 14 | 5.0 | 11.0 | 0.00 | 0.00 | 0.00 | 64 | 1014.3 |
| 20260505054504 | 65 | 14 | 5.0 | 12.0 | 0.00 | 0.00 | 0.00 | 64 | 1014.3 |
| 20260505054003 | 65 | 14 | 4.0 | 15.0 | 0.00 | 0.00 | 0.00 | 64 | 1014.3 |
| 20260505053503 | 65 | 14 | 4.0 | 15.0 | 0.00 | 0.00 | 0.00 | 64 | 1014.5 |
| 20260505053004 | 65 | 14 | 5.0 | 12.0 | 0.00 | 0.00 | 0.00 | 64 | 1014.4 |
| 20260505052504 | 66 | 14 | 5.0 | 12.0 | 0.00 | 0.00 | 0.00 | 64 | 1014.4 |
| 20260505052004 | 66 | 14 | 4.0 | 11.0 | 0.00 | 0.00 | 0.00 | 63 | 1014.3 |
| 20260505051505 | 66 | 14 | 5.0 | 13.0 | 0.00 | 0.00 | 0.00 | 63 | 1014.3 |
| 20260505051004 | 66 | 14 | 6.0 | 13.0 | 0.00 | 0.00 | 0.00 | 63 | 1014.4 |
| 20260505050504 | 66 | 14 | 5.0 | 13.0 | 0.00 | 0.00 | 0.00 | 63 | 1014.5 |
| 20260505041504 | 66 | 14 | 5.0 | 13.0 | 0.00 | 0.00 | 0.00 | 63 | 1014.4 |
| 20260505041004 | 66 | 14 | 4.0 | 13.0 | 0.00 | 0.00 | 0.00 | 63 | 1014.4 |
| 20260505040005 | 67 | 14 | 6.0 | 17.0 | 0.00 | 0.00 | 0.00 | 63 | 1014.3 |
| 20260505035504 | 67 | 14 | 6.0 | 17.0 | 0.00 | 0.00 | 0.00 | 63 | 1014.2 |
| 20260505035004 | 67 | 14 | 5.0 | 12.0 | 0.00 | 0.00 | 0.00 | 63 | 1014.2 |
| 20260505034505 | 67 | 14 | 4.0 | 12.0 | 0.00 | 0.00 | 0.00 | 63 | 1014.3 |
| 20260505034004 | 67 | 14 | 5.0 | 14.0 | 0.00 | 0.00 | 0.00 | 63 | 1014.3 |
| 20260505033504 | 67 | 14 | 6.0 | 14.0 | 0.00 | 0.00 | 0.00 | 63 | 1014.2 |
| 20260505033004 | 67 | 14 | 5.0 | 14.0 | 0.00 | 0.00 | 0.00 | 62 | 1014.1 |
| 20260505032504 | 67 | 14 | 6.0 | 18.0 | 0.00 | 0.00 | 0.00 | 62 | 1014.2 |
| 20260505032003 | 67 | 14 | 6.0 | 18.0 | 0.00 | 0.00 | 0.00 | 63 | 1014.1 |
| 20260505031504 | 67 | 14 | 5.0 | 16.0 | 0.00 | 0.00 | 0.00 | 63 | 1014.1 |
| 20260505031004 | 67 | 14 | 6.0 | 16.0 | 0.00 | 0.00 | 0.00 | 63 | 1014.0 |
| 20260505030005 | 67 | 14 | 6.0 | 16.0 | 0.00 | 0.00 | 0.00 | 63 | 1014.0 |
| 20260505025504 | 68 | 14 | 7.0 | 15.0 | 0.00 | 0.00 | 0.00 | 63 | 1014.2 |
| 20260505025004 | 68 | 14 | 7.0 | 16.0 | 0.00 | 0.00 | 0.00 | 63 | 1014.1 |
| 20260505024004 | 68 | 14 | 5.0 | 14.0 | 0.00 | 0.00 | 0.00 | 64 | 1014.1 |
| 20260505023503 | 68 | 14 | 5.0 | 14.0 | 0.00 | 0.00 | 0.00 | 64 | 1014.0 |
| 20260505023004 | 68 | 14 | 6.0 | 18.0 | 0.00 | 0.00 | 0.00 | 64 | 1014.0 |
| 20260505022004 | 68 | 14 | 5.0 | 12.0 | 0.00 | 0.00 | 0.00 | 64 | 1014.1 |
| 20260505021004 | 68 | 14 | 6.0 | 14.0 | 0.00 | 0.00 | 0.00 | 64 | 1013.9 |
| 20260505020004 | 69 | 14 | 6.0 | 18.0 | 0.00 | 0.00 | 0.00 | 64 | 1014.1 |
| 20260505015504 | 69 | 14 | 6.0 | 18.0 | 0.00 | 0.00 | 0.00 | 63 | 1014.1 |
| 20260505015004 | 69 | 14 | 6.0 | 18.0 | 0.00 | 0.00 | 0.00 | 63 | 1014.0 |
| 20260505014504 | 69 | 14 | 6.0 | 14.0 | 0.00 | 0.00 | 0.00 | 63 | 1013.9 |
| 20260505013503 | 69 | 14 | 5.0 | 13.0 | 0.00 | 0.00 | 0.00 | 63 | 1013.8 |
| 20260505013004 | 69 | 14 | 6.0 | 15.0 | 0.00 | 0.00 | 0.00 | 62 | 1013.8 |
| 20260505012504 | 70 | 14 | 6.0 | 17.0 | 0.00 | 0.00 | 0.00 | 62 | 1013.8 |
| 20260505012004 | 70 | 14 | 6.0 | 17.0 | 0.00 | 0.00 | 0.00 | 62 | 1013.7 |
| 20260505011504 | 70 | 14 | 5.0 | 16.0 | 0.00 | 0.00 | 0.00 | 62 | 1013.7 |
| 20260505010504 | 70 | 14 | 6.0 | 15.0 | 0.00 | 0.00 | 0.00 | 61 | 1013.4 |
| 20260505010004 | 70 | 14 | 7.0 | 20.0 | 0.00 | 0.00 | 0.00 | 61 | 1013.3 |
| 20260505005504 | 70 | 14 | 6.0 | 20.0 | 0.00 | 0.00 | 0.00 | 61 | 1013.3 |
| 20260505005004 | 70 | 14 | 5.0 | 12.0 | 0.00 | 0.00 | 0.00 | 61 | 1013.3 |
| 20260505004004 | 71 | 14 | 6.0 | 17.0 | 0.00 | 0.00 | 0.00 | 60 | 1013.1 |
| 20260505003004 | 71 | 14 | 6.0 | 18.0 | 0.00 | 0.00 | 0.00 | 60 | 1013.0 |
| 20260505002504 | 71 | 14 | 6.0 | 15.0 | 0.00 | 0.00 | 0.00 | 59 | 1013.0 |
| 20260505002003 | 71 | 14 | 6.0 | 14.0 | 0.00 | 0.00 | 0.00 | 59 | 1012.9 |
| 20260505001504 | 72 | 14 | 6.0 | 19.0 | 0.00 | 0.00 | 0.00 | 58 | 1012.9 |
| 20260505000503 | 72 | 14 | 6.0 | 13.0 | 0.00 | 0.00 | 0.00 | 57 | 1012.7 |
| 20260505000004 | 72 | 14 | 5.0 | 13.0 | 0.00 | 0.00 | 0.00 | 56 | 1012.7 |
| 20260504235503 | 73 | 14 | 5.0 | 12.0 | 0.00 | 0.00 | 0.00 | 56 | 1012.6 |
| 20260504234504 | 73 | 17 | 5.0 | 21.0 | 0.00 | 0.00 | 0.00 | 54 | 1012.5 |
| 20260504234004 | 74 | 13 | 6.0 | 21.0 | 0.00 | 0.00 | 0.00 | 53 | 1012.4 |
| 20260504233503 | 74 | 13 | 7.0 | 19.0 | 0.00 | 0.00 | 0.00 | 52 | 1012.3 |
| 20260504233004 | 75 | 13 | 6.0 | 17.0 | 0.00 | 0.00 | 0.00 | 48 | 1012.3 |
| 20260504232503 | 76 | 14 | 5.0 | 17.0 | 0.00 | 0.00 | 0.00 | 43 | 1012.1 |
| 20260504231504 | 77 | 14 | 4.0 | 12.0 | 0.00 | 0.00 | 0.00 | 37 | 1012.1 |
| 20260504230503 | 77 | 14 | 6.0 | 13.0 | 0.00 | 0.00 | 0.00 | 37 | 1012.0 |
| 20260504230004 | 77 | 14 | 6.0 | 15.0 | 0.00 | 0.00 | 0.00 | 37 | 1011.9 |
| 20260504225004 | 78 | 203 | 5.0 | 22.0 | 0.00 | 0.00 | 0.00 | 36 | 1011.9 |
| 20260504224503 | 78 | 203 | 5.0 | 22.0 | 0.00 | 0.00 | 0.00 | 36 | 1012.0 |
| 20260504224004 | 78 | 212 | 5.0 | 14.0 | 0.00 | 0.00 | 0.00 | 37 | 1012.0 |
| 20260504222504 | 78 | 228 | 5.0 | 16.0 | 0.00 | 0.00 | 0.00 | 36 | 1011.9 |
| 20260504222004 | 79 | 227 | 6.0 | 18.0 | 0.00 | 0.00 | 0.00 | 35 | 1011.9 |
| 20260504221503 | 79 | 213 | 5.0 | 18.0 | 0.00 | 0.00 | 0.00 | 35 | 1011.9 |
| 20260504221004 | 79 | 194 | 6.0 | 13.0 | 0.00 | 0.00 | 0.00 | 36 | 1012.0 |
| 20260504220004 | 79 | 192 | 5.0 | 17.0 | 0.00 | 0.00 | 0.00 | 35 | 1011.9 |
| 20260504215503 | 79 | 205 | 6.0 | 13.0 | 0.00 | 0.00 | 0.00 | 35 | 1012.0 |
| 20260504215003 | 79 | 204 | 5.0 | 13.0 | 0.00 | 0.00 | 0.00 | 34 | 1011.9 |
| 20260504214003 | 79 | 214 | 5.0 | 12.0 | 0.00 | 0.00 | 0.00 | 36 | 1012.0 |
| 20260504213004 | 79 | 194 | 6.0 | 17.0 | 0.00 | 0.00 | 0.00 | 35 | 1012.2 |
| 20260504212003 | 79 | 199 | 6.0 | 15.0 | 0.00 | 0.00 | 0.00 | 34 | 1012.1 |
| 20260504211504 | 80 | 218 | 5.0 | 15.0 | 0.00 | 0.00 | 0.00 | 35 | 1012.1 |
| 20260504211004 | 80 | 227 | 5.0 | 13.0 | 0.00 | 0.00 | 0.00 | 35 | 1012.1 |
| 20260504210004 | 79 | 224 | 5.0 | 14.0 | 0.00 | 0.00 | 0.00 | 34 | 1012.2 |
| 20260504205504 | 80 | 184 | 5.0 | 14.0 | 0.00 | 0.00 | 0.00 | 35 | 1012.2 |
| 20260504205004 | 79 | 173 | 6.0 | 14.0 | 0.00 | 0.00 | 0.00 | 35 | 1012.2 |
| 20260504204503 | 79 | 184 | 6.0 | 14.0 | 0.00 | 0.00 | 0.00 | 35 | 1012.3 |
| 20260504204004 | 79 | 193 | 5.0 | 12.0 | 0.00 | 0.00 | 0.00 | 34 | 1012.4 |
| 20260504203503 | 79 | 190 | 5.0 | 12.0 | 0.00 | 0.00 | 0.00 | 35 | 1012.3 |
| 20260504203004 | 79 | 191 | 5.0 | 12.0 | 0.00 | 0.00 | 0.00 | 35 | 1012.3 |
| 20260504202004 | 80 | 237 | 5.0 | 12.0 | 0.00 | 0.00 | 0.00 | 35 | 1012.3 |
| 20260504201504 | 80 | 242 | 4.0 | 15.0 | 0.00 | 0.00 | 0.00 | 35 | 1012.3 |
| 20260504201004 | 79 | 213 | 5.0 | 15.0 | 0.00 | 0.00 | 0.00 | 35 | 1012.4 |
| 20260504200504 | 79 | 204 | 6.0 | 15.0 | 0.00 | 0.00 | 0.00 | 34 | 1012.4 |
| 20260504195504 | 79 | 195 | 6.0 | 14.0 | 0.00 | 0.00 | 0.00 | 34 | 1012.5 |
| 20260504195004 | 78 | 207 | 6.0 | 15.0 | 0.00 | 0.00 | 0.00 | 36 | 1012.4 |
| 20260504194004 | 79 | 225 | 5.0 | 13.0 | 0.00 | 0.00 | 0.00 | 35 | 1012.7 |
| 20260504193503 | 78 | 238 | 6.0 | 16.0 | 0.00 | 0.00 | 0.00 | 36 | 1012.8 |
| 20260504192003 | 78 | 225 | 6.0 | 13.0 | 0.00 | 0.00 | 0.00 | 36 | 1012.9 |
| 20260504191503 | 78 | 232 | 6.0 | 15.0 | 0.00 | 0.00 | 0.00 | 36 | 1013.0 |
| 20260504191004 | 78 | 212 | 6.0 | 15.0 | 0.00 | 0.00 | 0.00 | 36 | 1013.1 |
| 20260504190504 | 78 | 226 | 6.0 | 14.0 | 0.00 | 0.00 | 0.00 | 38 | 1013.1 |
| 20260504190004 | 78 | 234 | 4.0 | 14.0 | 0.00 | 0.00 | 0.00 | 38 | 1013.3 |
| 20260504185504 | 78 | 207 | 4.0 | 9.0 | 0.00 | 0.00 | 0.00 | 38 | 1013.3 |
| 20260504185003 | 78 | 230 | 5.0 | 12.0 | 0.00 | 0.00 | 0.00 | 39 | 1013.4 |
| 20260504184504 | 77 | 252 | 6.0 | 15.0 | 0.00 | 0.00 | 0.00 | 39 | 1013.3 |
| 20260504184005 | 77 | 254 | 6.0 | 15.0 | 0.00 | 0.00 | 0.00 | 39 | 1013.5 |
| 20260504183504 | 77 | 257 | 6.0 | 14.0 | 0.00 | 0.00 | 0.00 | 39 | 1013.5 |
| 20260504182504 | 77 | 187 | 6.0 | 17.0 | 0.00 | 0.00 | 0.00 | 39 | 1013.8 |
| 20260504182004 | 76 | 232 | 5.0 | 16.0 | 0.00 | 0.00 | 0.00 | 40 | 1013.8 |
| 20260504181504 | 76 | 215 | 6.0 | 16.0 | 0.00 | 0.00 | 0.00 | 39 | 1014.0 |
| 20260504181004 | 77 | 193 | 5.0 | 12.0 | 0.00 | 0.00 | 0.00 | 39 | 1013.9 |
| 20260504180504 | 76 | 217 | 6.0 | 15.0 | 0.00 | 0.00 | 0.00 | 41 | 1014.0 |
| 20260504175503 | 76 | 211 | 5.0 | 19.0 | 0.00 | 0.00 | 0.00 | 38 | 1014.0 |
| 20260504175004 | 76 | 186 | 5.0 | 14.0 | 0.00 | 0.00 | 0.00 | 40 | 1014.0 |
| 20260504174505 | 75 | 197 | 6.0 | 14.0 | 0.00 | 0.00 | 0.00 | 40 | 1014.0 |
| 20260504174003 | 75 | 212 | 6.0 | 14.0 | 0.00 | 0.00 | 0.00 | 39 | 1014.1 |
| 20260504173004 | 76 | 212 | 5.0 | 14.0 | 0.00 | 0.00 | 0.00 | 40 | 1014.1 |
| 20260504172503 | 76 | 198 | 6.0 | 20.0 | 0.00 | 0.00 | 0.00 | 41 | 1014.3 |
| 20260504172004 | 76 | 208 | 5.0 | 20.0 | 0.00 | 0.00 | 0.00 | 40 | 1014.3 |
| 20260504171504 | 76 | 218 | 4.0 | 14.0 | 0.00 | 0.00 | 0.00 | 39 | 1014.3 |
| 20260504171004 | 76 | 200 | 4.0 | 10.0 | 0.00 | 0.00 | 0.00 | 40 | 1014.4 |
| 20260504170504 | 75 | 236 | 5.0 | 14.0 | 0.00 | 0.00 | 0.00 | 41 | 1014.4 |
| 20260504151003 | 70 | 16 | 5.0 | 13.0 | 0.00 | 0.00 | 0.00 | 50 | 1015.5 |
| 20260504150503 | 70 | 14 | 5.0 | 14.0 | 0.00 | 0.00 | 0.00 | 52 | 1015.5 |
| 20260504141003 | 66 | 15 | 4.0 | 11.0 | 0.00 | 0.00 | 0.00 | 59 | 1015.7 |
| 20260504140504 | 66 | 15 | 3.0 | 11.0 | 0.00 | 0.00 | 0.00 | 60 | 1015.8 |
| 20260504130504 | 61 | 14 | 5.0 | 13.0 | 0.00 | 0.00 | 0.00 | 68 | 1016.3 |